Regional Weather Roundup
Issued by NWS

Home | Current Version | Previous Version | Text Only | Print | Product List | Glossary Off
Versions: 1 2 3 4 5 6 7 8 9 10 11 12 13 14 15 16 17 18 19 20 21 22 23 24 25 26 27 28 29 30 31 32 33 34 35 36 37 38 39 40 41 42 43 44 45 46 47 48 49 50

612
ASUS45 KCYS 171610
RWRWY

WYOMING REGIONAL WEATHER ROUNDUP
NATIONAL WEATHER SERVICE CHEYENNE WY
1000 AM MDT TUE OCT 17 2017

NOTE:  "FAIR" INDICATES FEW OR NO CLOUDS BELOW 12,000 FEET
WITH NO SIGNIFICANT WEATHER AND/OR OBSTRUCTIONS TO VISIBILITY.

WYZ001-171700-
YELLOWSTONE NATIONAL PARK

CITY           SKY/WX    TMP DP  RH WIND       PRES   REMARKS
LK YELLOWSTONE NOT AVBL
W YELLOWSTONE  NOT AVBL

$$
WYZ002>013-054>058-071-098>099-171700-
NORTHERN WYOMING

CITY           SKY/WX    TMP DP  RH WIND       PRES   REMARKS
JACKSON        FAIR      33  22  63 CALM      30.36F
CODY           FAIR      59  19  21 W13G26    30.15F
GREYBULL       FAIR      42  29  59 CALM      30.14F
WORLAND        FAIR      43  33  68 CALM      30.15F
SHERIDAN       FAIR      61  32  33 CALM      30.04F
BUFFALO        FAIR      62  12  14 S7        30.10F
GILLETTE       FAIR      58  30  34 CALM      30.08S
HULETT         FAIR      55  32  41 W3        30.09S
NEWCASTLE      FAIR      52  27  37 SE9       30.14F

$$
WYZ014>020-022>026-101>103-171700-
CENTRAL WYOMING

CITY           SKY/WX    TMP DP  RH WIND       PRES   REMARKS
BIG PINEY      FAIR      36  16  44 CALM      30.38S
PINEDALE       FAIR      37  23  56 NW3       30.37F
DUBOIS         FAIR      50  12  22 N16G23    30.27F
LANDER         NOT AVBL
RIVERTON       FAIR      51  24  34 CALM      30.22S
CASPER         FAIR      55  13  18 S18G26    30.20S
DOUGLAS        FAIR      53  23  31 SW3       30.18R

$$
WYZ021-027>030-104>119-171700-
SOUTHERN WYOMING

CITY           SKY/WX    TMP DP  RH WIND       PRES   REMARKS
EVANSTON       FAIR      49  10  20 SW6       30.37F
KEMMERER       FAIR      45  16  31 CALM      30.38S
FORT BRIDGER   FAIR      55  11  17 W5        30.38F
ROCK SPRINGS   FAIR      49   4  16 W8        30.37S
DIXON          FAIR      45  14  28 SE7       30.42F
RAWLINS        FAIR      55   6  14 SW21G28   30.33S
SARATOGA       FAIR      52  10  19 E8        30.38F
LARAMIE        FAIR      56   8  14 SW18      30.32S
CHEYENNE       FAIR      64   8  11 W17       30.26S
TORRINGTON     FAIR      52  25  35 CALM      30.16S
PINE BLUFFS    FAIR      61  28  29 S6        30.22S

$$




USA.gov is the U.S. government's official web portal to all federal, state and local government web resources and services.